Simultaneous Nadir Overpasses (SNOs) Predictions

Prediction of SNOs between METOP-C and LANDSAT-8 Satellite Orbit:

Table of predicted SNOs for the next 14.0 days since TLE Epoch: 7/29/2023
Index Date (METOP-C) Time (METOP-C) Lat,Lon (METOP-C) SZA (METOP-C ) Date (LANDSAT-8) Time (LANDSAT-8) Lat,Lon (LANDSAT-8) SZA (LANDSAT-8 ) Distance(km) Time Diff (sec)
1 07/29/2023 13:10:15 -80.81,-165.34 116.61 07/29/2023 13:11:29 -80.59,-164.66 116.70 26.91 74
2 07/29/2023 14:00:30 81.20, 11.20 64.59 07/29/2023 14:00:32 81.20, 11.09 64.57 2.08 2
3 07/29/2023 14:51:10 -81.22, 179.05 115.35 07/29/2023 14:49:58 -81.22, 179.02 115.38 0.54 72
4 08/01/2023 08:44:09 -81.19, -90.15 114.79 08/01/2023 08:45:22 -81.19, -90.32 114.78 2.92 73
5 08/01/2023 09:34:49 81.19, 77.26 65.23 08/01/2023 09:34:48 81.19, 77.40 65.24 2.47 1
6 08/01/2023 10:25:20 -81.29,-111.45 114.28 08/01/2023 10:24:06 -81.37,-111.61 114.27 9.70 74
7 08/04/2023 04:18:28 -81.19, -23.80 114.08 08/04/2023 04:19:38 -81.19, -23.76 114.04 0.90 70
8 08/04/2023 05:09:07 81.20, 144.02 66.00 08/04/2023 05:09:04 81.20, 143.93 65.98 1.64 3
9 08/06/2023 23:52:47 -81.18, 42.49 113.33 08/06/2023 23:53:54 -81.19, 42.63 113.28 2.51 67
10 08/07/2023 00:43:25 81.21,-149.28 66.80 08/07/2023 00:43:19 81.21,-149.34 66.79 1.04 6
11 08/09/2023 19:27:05 -81.18, 108.72 112.55 08/09/2023 19:28:09 -81.18, 108.86 112.51 2.40 64



Historial Predications of SNOs between METOP-C and LANDSAT-8
